Miscellaneous Local Product
Issued by NWS Hastings, NE

Home | Current Version | Previous Version | Graphics & Text | Print | Product List | Glossary On
Versions: 1 2 3 4 5 6 7 8 9 10 11 12 13 14 15 16 17 18 19 20 21 22 23 24 25 26 27 28 29 30 31 32 33 34 35 36 37 38 39 40 41 42 43 44 45 46 47 48 49 50
639
AXUS43 KGID 212302
MISGRI

GID CWA HOURLY WEATHER ROUNDUP
NATIONAL WEATHER SERVICE HASTINGS NE
600 PM CDT THU MAY 21 2015

NOTE: "FAIR" INDICATES FEW OR NO CLOUDS BELOW 12,000 FEET WITH NO
SIGNIFICANT WEATHER AND/OR OBSTRUCTIONS TO VISIBILITY.

...SOUTH CENTRAL NEBRASKA...

CITY           SKY/WX    TMP DP  RH WIND       PRES   REMARKS
GRAND ISLAND   SUNNY     66  35  31 S9        30.21F
HASTINGS       SUNNY     65  34  31 S5        30.21F
KEARNEY        SUNNY     64  34  32 SW5       30.21F
ORD            SUNNY     65  32  29 VRB5      30.19F
YORK           SUNNY     64  39  39 CALM      30.22S
AURORA         SUNNY     65  35  32 SW6       30.21F
LEXINGTON      SUNNY     63  39  40 S3        30.20F
HOLDREGE       SUNNY     63  35  34 SW6       30.21F
HEBRON         SUNNY     67  31  26 SW3       30.22F

...NEBRASKA PANHANDLE...

CITY           SKY/WX    TMP DP  RH WIND       PRES   REMARKS
CHADRON        CLOUDY    59  43  55 SE12      30.15F
ALLIANCE       CLOUDY    56  43  61 S13       30.17F
SCOTTSBLUFF    CLOUDY    56  43  61 SE10      30.16F
SIDNEY         CLOUDY    56  43  61 SE16      30.16F

...WESTERN AND NORTH CENTRAL NEBRASKA...

CITY           SKY/WX    TMP DP  RH WIND       PRES   REMARKS
VALENTINE      SUNNY     66  28  24 SE9       30.18F
AINSWORTH      SUNNY     65  33  29 S8        30.18F
ONEILL         SUNNY     68  34  29 S7        30.19F
BROKEN BOW     SUNNY     65  38  36 SW7       30.19F
IMPERIAL       CLOUDY    58  43  57 SE13      30.18F
NORTH PLATTE   PTSUNNY   62  41  46 S7        30.19F
MCCOOK         PTSUNNY   62  39  42 SE9       30.19F

...EASTERN NEBRASKA...

CITY           SKY/WX    TMP DP  RH WIND       PRES   REMARKS
NORFOLK        SUNNY     71  37  28 N5        30.17F
SO SIOUX CITY  SUNNY     75  34  22 NW8G17    30.13F
TEKAMAH        SUNNY     75  37  25 W16       30.14F
COLUMBUS       SUNNY     68  36  30 S6        30.22F
ALBION         SUNNY     67  34  28 SW6       30.20S
OMAHA EPPLEY   MOSUNNY   73  39  29 W12       30.15F
OFFUTT AFB     SUNNY     71  41  33 W7        30.15F
MILLARD        SUNNY     72  39  30 W8        30.17F
LINCOLN        SUNNY     69  38  32 SW8       30.20F
NEBRASKA CITY  SUNNY     69  32  25 W5        30.19S
BEATRICE       SUNNY     67  38  34 CALM      30.20F
FALLS CITY     SUNNY     69  41  36 VRB6      30.18F

...NORTHERN KANSAS...

CITY           SKY/WX    TMP DP  RH WIND       PRES   REMARKS
GOODLAND       CLOUDY    57  44  62 S15       30.18F
HILL CITY      MOSUNNY   64  42  44 SE12      30.20F
NORTON         PTCLDY    63  36  36 SE8       30.19F
PHILLIPSBURG   SUNNY     66  37  34 E6        30.21F
SMITH CENTER   SUNNY     64  36  34 SE3       30.21F
HAYS           MOSUNNY   63  39  42 SE7       30.21F
RUSSELL        SUNNY     63  41  44 E9G24     30.20F
CONCORDIA      MOSUNNY   65  39  38 S3        30.21F
SALINA         SUNNY     65  40  39 E5        30.22F
TOPEKA         SUNNY     68  43  40 N3        30.21F



USA.gov is the U.S. government's official web portal to all federal, state and local government web resources and services.